Location: Dal�� Lhota
(48.7500°N, 14.0167°E)
Time: 01:31:32
(UTC+00:00)

SL-16 R/B - Pass Details

Date: 24 September 2020
Orbit: 985 x 1007 km, 99.5° (Epoch: 29 October)

Event Time Altitude Azimuth Distance (km) Brightness Sun altitude
Exits shadow 23:50:37 32° 20° (NNE) 1,647 4.0 -40.8°
Drops below altitude 10° 23:54:11 10° 355° (N) 2,755 5.4 -40.6°
Sets 23:56:46 0° 349° (N) 3,707 6.2 -40.4°
